Location: Godzisko
(49.9648°N, 19.4576°E)
Time: 05:58:59
(UTC+00:00)

Cosmos 2369 Rocket - Pass Details

Date: 20 April 2021
Orbit: 828 x 853 km, 71.0° (Epoch: 05 May)

Event Time Altitude Azimuth Distance (km) Brightness Sun altitude
Exits shadow 02:07:09 - 182° (S) 2,846 4.6 -13.8°
Reaches altitude 10° 02:08:18 10° 178° (S) 2,429 4.3 -13.7°
Maximum altitude 02:13:31 43° 109° (ESE) 1,160 3.2 -13.0°
Drops below altitude 10° 02:18:47 10° 40° (NE) 2,455 6.0 -12.3°
Sets 02:21:20 0° 34° (NNE) 3,397 6.8 -12.0°
